Location: Dompnac
(44.5644°N, 4.1026°E)
Time: 05:02:38
(UTC+00:00)

NOSS 2-2 (E) - Pass Details

Date: 20 January 2021
Orbit: 462 x 1744 km, 63.3° (Epoch: 03 March)

Event Time Altitude Azimuth Distance (km) Brightness Sun altitude
Rises 18:19:11 0° 328° (NNW) 2,877 7.3 -18.1°
Reaches altitude 10° 18:23:13 10° 6° (N) 2,227 6.2 -18.8°
Enters shadow 18:24:21 11° 19° (NNE) 2,236 6.1 -19.0°
